Weather History for London City, United Kingdom

Change the Weather History Date:

Friday, October 5, 2012

  Actual Average Record
Temperature  
Mean Temperature 54 °F -  
Max Temperature 60 °F 59 °F 68 °F (2011)
Min Temperature 48 °F 50 °F 39 °F (1999)
Degree Days  
Heating Degree Days 11    
Growing Degree Days 4 (Base 50)    
Moisture  
Dew Point 49 °F    
Average Humidity 82    
Maximum Humidity 94    
Minimum Humidity 59    
Precipitation  
Precipitation 0.00 in - - ()
Sea Level Pressure  
Sea Level Pressure 29.73 in    
Wind  
Wind Speed 9 mph ()    
Max Wind Speed 25 mph    
Max Gust Speed 40 mph    
Visibility 5.9 miles    
Events Rain , Hail    
Averages and records for this station are not official NWS values.
T = Trace of Precipitation, MM = Missing Value Source: Averaged Metar Reports

Daily Weather History Graph

Daily Weather History Graph

Search for Another Location

Airport:

Trip Planner

Search our weather history database for the weather conditions in past years. The results will help you decide how hot, cold, wet, or windy it might be!

Date:

Astronomy

Oct. 05, 2012 Rise Set
Actual Time 7:07 AM BST 6:27 PM BST
Civil Twilight 6:34 AM BST 7:00 PM BST
Nautical Twilight 5:55 AM BST 7:39 PM BST
Astronomical Twilight 5:16 AM BST 8:18 PM BST
Moon 9:05 PM BST (10/5) 12:36 PM BST (10/5)
Length of Visible Light 12h 26m
Length of Day
11h 20m
Waning Gibbous, 76% of the Moon is Illuminated
Oct 5
Waning Gibbous
Oct 8
Last Quarter
Oct 15
New
Oct 22
First Quarter
Oct 29
Full

Hourly Weather History & Observations

Time (BST) Temp. Dew Point Humidity Pressure Visibility Wind Dir Wind Speed Gust Speed Precip Events Conditions
12:20 AM 53.6 °F 48.2 °F 82% 29.77 in 6.2 mi SSE 4.6 mph - N/A Rain Rain
12:50 AM 51.8 °F 48.2 °F 88% 29.74 in 6.2 mi SE 5.8 mph - N/A Rain Rain
1:20 AM 51.8 °F 50.0 °F 94% 29.74 in 6.2 mi SE 5.8 mph - N/A Rain Rain
1:50 AM 51.8 °F 50.0 °F 94% 29.71 in 6.2 mi ESE 5.8 mph - N/A Rain Light Rain
2:20 AM 51.8 °F 50.0 °F 94% 29.65 in 6.2 mi ESE 5.8 mph - N/A Rain Rain
2:50 AM 51.8 °F 50.0 °F 94% 29.62 in 4.3 mi East 6.9 mph - N/A Rain Rain
3:20 AM 53.6 °F 51.8 °F 94% 29.59 in 6.2 mi ESE 8.1 mph - N/A Rain Heavy Rain
3:50 AM 55.4 °F 53.6 °F 94% 29.53 in 4.3 mi South 9.2 mph 20.7 mph N/A Rain Rain
4:20 AM 59.0 °F 55.4 °F 88% 29.50 in 5.6 mi SSW 19.6 mph - N/A Hail Hail
4:50 AM 59.0 °F 55.4 °F 88% 29.50 in 6.2 mi SSW 19.6 mph 31.1 mph N/A Rain Light Rain Showers
5:20 AM 60.8 °F 57.2 °F 88% 29.50 in 6.2 mi SSW 19.6 mph - N/A   Mostly Cloudy
5:50 AM 60.8 °F 57.2 °F 88% 29.50 in 6.2 mi SW 21.9 mph 40.3 mph N/A   Overcast
6:20 AM 60.8 °F 59.0 °F 94% 29.53 in 6.2 mi SW 18.4 mph 31.1 mph N/A Rain Light Rain
6:50 AM 59.0 °F 53.6 °F 82% 29.56 in 6.2 mi West 25.3 mph - N/A Rain Light Rain
7:20 AM 53.6 °F 50.0 °F 88% 29.62 in 6.2 mi WNW 13.8 mph - N/A   Scattered Clouds
7:50 AM 53.6 °F 50.0 °F 88% 29.65 in 6.2 mi WSW 6.9 mph - N/A   Scattered Clouds
8:20 AM 53.6 °F 50.0 °F 88% 29.65 in - SW 5.8 mph - N/A   Clear
8:50 AM 53.6 °F 50.0 °F 88% 29.68 in 6.2 mi SW 10.4 mph - N/A   Partly Cloudy
9:20 AM 53.6 °F 50.0 °F 88% 29.71 in 6.2 mi WSW 13.8 mph - N/A   Scattered Clouds
9:50 AM 55.4 °F 50.0 °F 82% 29.71 in 6.2 mi WSW 12.7 mph - N/A   Scattered Clouds
10:20 AM 57.2 °F 50.0 °F 77% 29.74 in 6.2 mi WSW 15.0 mph - N/A   Scattered Clouds
10:50 AM 57.2 °F 50.0 °F 77% 29.74 in 6.2 mi WSW 12.7 mph - N/A   Partly Cloudy
11:20 AM 59.0 °F 48.2 °F 67% 29.74 in 6.2 mi WSW 15.0 mph - N/A   Partly Cloudy
11:50 AM 60.8 °F 46.4 °F 59% 29.77 in 6.2 mi WSW 15.0 mph - N/A   Partly Cloudy
12:20 PM 60.8 °F 46.4 °F 59% 29.77 in 6.2 mi WSW 16.1 mph - N/A   Partly Cloudy
12:50 PM 59.0 °F 44.6 °F 59% 29.77 in 6.2 mi West 20.7 mph - N/A   Scattered Clouds
1:20 PM 59.0 °F 46.4 °F 63% 29.80 in 6.2 mi WSW 15.0 mph - N/A   Mostly Cloudy
1:50 PM 59.0 °F 46.4 °F 63% 29.80 in 6.2 mi WSW 12.7 mph - N/A   Mostly Cloudy
2:20 PM 59.0 °F 46.4 °F 63% 29.80 in 6.2 mi West 11.5 mph - N/A   Mostly Cloudy
2:50 PM 59.0 °F 46.4 °F 63% 29.80 in 6.2 mi West 13.8 mph - N/A   Mostly Cloudy
3:20 PM 59.0 °F 46.4 °F 63% 29.80 in 6.2 mi WSW 9.2 mph - N/A Rain Light Rain
3:50 PM 59.0 °F 46.4 °F 63% 29.83 in 6.2 mi WSW 9.2 mph - N/A Rain Light Rain Showers
4:20 PM 57.2 °F 48.2 °F 72% 29.83 in 6.2 mi West 10.4 mph - N/A Rain Light Rain Showers
4:50 PM 57.2 °F 48.2 °F 72% 29.83 in 6.2 mi West 10.4 mph - N/A Rain Light Rain Showers
5:20 PM 55.4 °F 48.2 °F 77% 29.83 in 6.2 mi WNW 6.9 mph - N/A Rain Rain
5:50 PM 53.6 °F 48.2 °F 82% 29.83 in 6.2 mi West 6.9 mph - N/A Rain Rain
6:20 PM 53.6 °F 48.2 °F 82% 29.83 in 5.0 mi West 8.1 mph - N/A Rain Rain
6:50 PM 51.8 °F 48.2 °F 88% 29.83 in 5.6 mi West 5.8 mph - N/A Rain Rain
7:20 PM 51.8 °F 48.2 °F 88% 29.86 in 5.6 mi NW 5.8 mph - N/A Rain Rain
7:50 PM 50.0 °F 46.4 °F 87% 29.86 in 6.2 mi WNW 4.6 mph - N/A Rain Rain
8:20 PM 50.0 °F 46.4 °F 87% 29.83 in 6.2 mi Variable 3.5 mph - N/A Rain Light Rain
8:50 PM 50.0 °F 46.4 °F 87% 29.83 in 6.2 mi Calm Calm - N/A Rain Light Rain
9:20 PM 50.0 °F 46.4 °F 87% 29.86 in 6.2 mi WNW 3.5 mph - N/A   Drizzle
9:50 PM 48.2 °F 46.4 °F 93% 29.83 in 4.3 mi Variable 3.5 mph - N/A Rain Rain
10:20 PM 48.2 °F 46.4 °F 93% 29.83 in - Calm Calm - N/A Rain Rain
10:50 PM 48.2 °F 46.4 °F 93% 29.83 in - Variable 2.3 mph - N/A Rain Light Rain
11:20 PM 48.2 °F 46.4 °F 93% 29.83 in 3.1 mi NE 4.6 mph - N/A   Drizzle
11:50 PM 48.2 °F 46.4 °F 93% 29.83 in 3.1 mi ENE 6.9 mph - N/A Rain Light Rain